Location: ????
(33.1659°N, 35.6604°E)
Time: 17:10:08
(UTC+00:00)

Cosmos 407 Rocket - Pass Details

Date: 20 September 2019
Orbit: 744 x 786 km, 74.0° (Epoch: 19 October)

Event Time Altitude Azimuth Distance (km) Brightness Sun altitude
Rises 16:59:52 0° 350° (N) 3,191 7.0 -17.9°
Reaches altitude 10° 17:02:20 10° 357° (N) 2,262 6.1 -18.4°
Maximum altitude 17:07:13 44° 70° (ENE) 1,024 3.8 -19.4°
Enters shadow 17:08:09 40° 99° (E) 1,096 3.8 -19.6°
